Weather History for El Arish, Egypt

Change the Weather History Date:

Tuesday, October 1, 2013

  Actual Average Record
Temperature  
Mean Temperature 72 °F -  
Max Temperature 83 °F 83 °F - ()
Min Temperature 60 °F 61 °F - ()
Cooling Degree Days 6    
Growing Degree Days 22 (Base 50)    
Moisture  
Dew Point 61 °F    
Average Humidity 72    
Maximum Humidity 94    
Minimum Humidity 48    
Precipitation  
Precipitation 0.00 in 0.01 in - ()
Sea Level Pressure  
Sea Level Pressure 29.83 in    
Wind  
Wind Speed 3 mph ()    
Max Wind Speed 7 mph    
Max Gust Speed -    
Visibility 6.1 miles    
Events      
T = Trace of Precipitation, MM = Missing Value Source: Averaged Metar Reports

Daily Weather History Graph

Daily Weather History Graph

Search for Another Location

Airport:

Trip Planner

Search our weather history database for the weather conditions in past years. The results will help you decide how hot, cold, wet, or windy it might be!

Date:

Astronomy

Oct. 01, 2013 Rise Set
Actual Time 5:38 AM EET 5:29 PM EET
Civil Twilight 5:14 AM EET 5:54 PM EET
Nautical Twilight 4:46 AM EET 6:22 PM EET
Astronomical Twilight 4:17 AM EET 6:50 PM EET
Moon 2:05 AM EET (10/1) 3:11 PM EET (10/1)
Length of Visible Light 12h 39m
Length of Day
11h 51m
Waning Crescent, 14% of the Moon is Illuminated
Oct 1
Waning Crescent
Oct 5
New
Oct 12
First Quarter
Oct 19
Full
Oct 27
Last Quarter

Hourly Weather History & Observations

Time (EET) Temp. Heat Index Dew Point Humidity Pressure Visibility Wind Dir Wind Speed Gust Speed Precip Events Conditions
12:00 AM 66.2 °F - 60.8 °F 83% 29.86 in - South 2.3 mph - N/A   Clear
1:00 AM 64.4 °F - 59.0 °F 83% 29.86 in - SSE 4.6 mph - N/A   Clear
2:00 AM 64 °F - 59 °F 80% 29.86 in 6 mi SSW 3.5 mph - -  
2:00 AM 64.4 °F - 59.0 °F 83% 29.86 in - NNE 3.5 mph - N/A   Clear
3:00 AM 62.6 °F - 59.0 °F 88% 29.83 in - South 3.5 mph - N/A   Clear
4:00 AM 60.8 °F - 59.0 °F 94% 29.83 in - South 3.5 mph - N/A   Clear
5:00 AM 60.8 °F - 57.2 °F 88% 29.83 in - South 4.6 mph - N/A   Clear
6:00 AM 60.8 °F - 57.2 °F 88% 29.83 in 6.2 mi South 4.6 mph - N/A   Partly Cloudy
7:00 AM 66.2 °F - 60.8 °F 83% 29.86 in 6.2 mi South 2.3 mph - N/A   Partly Cloudy
8:00 AM 75 °F - 61 °F 53% 29.85 in 6 mi SSE 2.3 mph - -  
8:00 AM 75.2 °F - 60.8 °F 61% 29.83 in - SSE 2.3 mph - N/A   Clear
9:00 AM 80.6 °F 81.8 °F 62.6 °F 54% 29.83 in - ESE 1.2 mph - N/A   Clear
10:00 AM 82.4 °F 83.4 °F 62.6 °F 51% 29.83 in 6.2 mi WNW 2.3 mph - N/A   Partly Cloudy
11:00 AM 84.2 °F 85.0 °F 62.6 °F 48% 29.80 in 6.2 mi NNW 5.8 mph - N/A   Scattered Clouds
1:00 PM 84.2 °F 85.0 °F 62.6 °F 48% 29.77 in 6.2 mi NNW 6.9 mph - N/A   Scattered Clouds
6:00 PM 77.0 °F - 64.4 °F 65% 29.77 in - North 5.8 mph - N/A   Clear
7:00 PM 75.2 °F - 64.4 °F 69% 29.80 in - North 2.3 mph - N/A   Clear
8:00 PM 74 °F - 63 °F 60% 29.82 in 6 mi Calm Calm - -  
8:00 PM 73.4 °F - 62.6 °F 69% 29.80 in - Calm Calm - N/A   Clear
9:00 PM 71.6 °F - 60.8 °F 69% 29.83 in - WSW 2.3 mph - N/A   Clear
10:00 PM 69.8 °F - 62.6 °F 78% 29.83 in - SSE 2.3 mph - N/A   Clear
11:00 PM 66.2 °F - 60.8 °F 83% 29.80 in - SSE 4.6 mph - N/A   Clear